Location: Dos Palmas
(32.4468°N, 116.8732°W)
Time: 23:58:57
(UTC+00:00)

Meteor 1-24 Rocket - Pass Details

Date: 28 October 2021
Orbit: 790 x 927 km, 81.3° (Epoch: 30 November)

Event Time Altitude Azimuth Distance (km) Brightness Sun altitude
Rises 11:53:43 0° 161° (SSE) 3,276 7.0 -27.5°
Reaches altitude 10° 11:56:18 10° 151° (SSE) 2,358 6.3 -27.0°
Maximum altitude 12:00:54 31° 90° (E) 1,390 5.4 -26.0°
Drops below altitude 10° 12:05:37 10° 30° (NNE) 2,423 6.4 -25.0°
Sets 12:08:18 0° 21° (NNE) 3,380 7.1 -24.5°
